Wind_Speed
20 20 20 20 22 22 22 22 23 24 25 26 26 27 28 28 29 29 29 30 30 30 30 31 31 32 32 32 32 31 30 30 31 31 30 29 29 28 29 29 28 27 27
20 20 21 21 22 22 23 24 25 26 26 27 27 27 28 29 30 30 30 31 31 31 31 32 33 33 33 33 33 33 32 32 32 32 32 32 31 30 30 30 29 28 29
20 21 22 22 22 23 24 25 25 27 27 28 28 28 29 30 30 31 31 32 32 32 32 33 34 34 33 33 33 33 32 32 33 33 32 31 31 31 31 31 31 30 30
21 21 22 23 24 25 25 26 27 28 28 28 29 29 30 31 31 32 32 32 32 31 32 32 33 34 33 32 32 32 32 31 32 32 32 32 32 32 31 31 31 31 31
22 22 24 24 25 26 27 28 28 29 29 29 30 30 30 31 31 31 32 32 31 31 31 31 31 32 31 31 31 32 32 31 31 31 32 32 33 32 31 30 31 31 31
23 24 25 25 25 26 27 28 29 29 30 30 31 31 31 31 30 31 31 31 31 31 31 31 31 31 31 31 31 32 31 31 31 32 32 32 32 31 31 31 30 31 31
23 24 24 24 25 26 27 28 28 29 30 30 30 31 31 30 30 30 31 30 30 30 31 32 31 31 31 31 30 31 31 31 31 32 32 32 32 31 31 31 30 31 32
22 23 23 24 25 26 27 28 29 29 30 30 30 30 31 31 30 31 31 31 30 31 31 32 31 31 31 31 31 31 31 31 30 30 31 31 32 33 32 32 31 32 32
22 22 23 25 26 26 27 28 29 29 29 29 30 30 30 30 30 31 31 31 31 31 31 31 31 31 31 31 31 31 31 31 30 30 30 31 31 31 32 32 32 32 33
23 23 24 25 26 26 27 27 28 28 29 29 29 28 28 29 29 29 30 31 31 31 31 31 31 31 31 31 31 31 31 31 30 31 32 31 31 32 32 32 32 33 33
24 24 25 26 27 27 27 27 27 27 28 27 27 28 28 29 29 29 29 29 30 30 30 30 31 31 30 30 31 30 30 30 30 31 31 31 31 32 32 32 32 33 33
24 25 26 27 27 27 27 27 26 25 26 26 26 26 26 27 27 27 27 28 28 28 29 28 28 29 29 29 30 30 30 30 30 29 29 30 31 32 32 32 32 32 32
24 25 25 26 26 26 26 26 25 25 25 25 25 25 25 25 25 25 26 26 27 26 26 26 25 26 27 27 27 28 28 28 28 28 27 27 28 29 29 30 30 30 31
25 25 26 26 25 25 25 24 24 25 24 24 25 25 25 25 25 25 25 25 24 24 24 24 24 24 24 25 25 25 25 26 26 25 26 26 27 27 28 28 29 30 30
25 25 24 24 24 23 23 23 23 23 23 23 24 24 24 24 23 23 23 23 22 22 22 22 23 23 23 23 23 23 23 23 23 23 23 24 25 26 26 27 28 28 28
24 24 23 23 23 23 22 22 21 21 21 22 22 22 21 21 21 21 21 21 20 21 21 21 21 21 21 21 21 21 20 20 20 20 21 21 22 23 24 25 26 26 26
22 23 23 23 22 21 21 20 20 19 19 19 19 19 19 18 18 18 17 17 17 17 17 17 17 17 18 17 17 17 18 18 17 18 19 20 21 21 22 22 22 22 23
22 22 21 21 20 20 19 19 18 18 18 18 18 18 17 17 16 15 14 15 15 14 14 14 14 14 14 14 15 15 15 16 16 16 16 17 17 18 19 19 20 21 21
22 21 20 19 19 18 17 17 16 16 16 16 16 17 16 14 12 11 11 11 11 11 11 11 11 11 11 12 12 13 13 14 14 14 14 14 15 15 16 16 17 17 18
20 19 18 18 17 16 15 15 15 14 14 14 15 15 13 12 10 10 9 9 8 7 7 7 8 8 8 9 9 10 10 10 10 10 10 11 11 12 13 13 13 13 14
19 18 17 16 15 14 13 13 13 13 13 13 13 12 10 9 9 8 7 7 6 5 5 5 6 5 5 5 5 5 6 7 7 7 7 8 8 8 8 8 9 9 9
16 15 14 13 12 11 11 11 11 11 11 11 10 9 8 7 6 6 5 4 4 4 4 4 3 3 3 2 2 2 2 2 2 3 3 3 4 4 5 5 6 6 7
13 12 12 11 10 9 9 9 9 9 9 9 8 8 7 6 5 4 3 3 3 3 4 4 4 4 4 5 5 5 5 4 4 4 4 4 4 4 3 4 4 5 5
11 10 10 10 8 8 7 7 7 8 8 7 8 8 7 7 6 4 4 3 4 5 6 6 7 7 7 7 7 7 7 7 7 7 7 6 6 5 5 4 5 5 5
10 9 9 8 7 7 6 7 7 7 7 7 7 7 7 7 7 7 6 6 6 6 7 8 8 9 9 9 9 9 9 9 9 9 9 8 8 7 7 7 6 6 6
9 8 8 8 7 6 6 6 6 6 7 7 8 8 8 8 8 9 8 8 8 8 8 9 10 10 10 10 11 11 11 11 10 10 10 10 10 9 9 9 9 8 8
Wind_Direction
270 274 275 279 280 281 282 281 283 283 282 281 279 278 276 275 274 274 275 275 275 273 272 272 270 269 269 268 267 266 265 265 264 263 264 265 264 263 261 261 262 262 261
274 275 278 279 279 280 280 279 280 281 281 281 280 279 278 276 277 276 276 275 274 274 274 274 273 271 269 269 268 267 266 265 263 263 263 262 263 263 261 261 261 262 260
273 276 280 279 279 279 279 280 280 281 281 281 281 279 277 277 278 278 277 276 276 274 273 273 273 271 271 271 269 268 267 265 261 260 260 260 262 261 261 260 260 261 260
274 278 280 279 279 279 279 281 282 282 282 282 282 281 279 277 277 277 277 276 275 274 273 273 272 271 269 269 270 269 268 265 262 261 260 260 260 260 260 259 260 260 259
281 280 281 281 280 281 281 282 282 281 281 282 282 282 281 279 277 277 277 276 275 274 273 273 271 270 268 267 268 269 270 267 263 262 262 262 261 262 260 260 259 259 259
284 283 283 283 283 283 284 284 283 282 282 283 282 282 282 281 279 278 279 278 276 275 273 273 271 271 270 268 268 270 270 270 268 266 265 263 263 260 259 260 259 261 261
286 286 286 286 286 285 284 284 284 283 282 283 282 283 283 282 281 280 279 278 276 274 272 273 272 272 272 270 268 270 271 270 270 267 265 263 261 258 259 259 260 262 263
289 288 288 288 289 289 288 287 286 285 284 283 284 285 284 283 282 281 280 279 278 276 274 274 272 272 272 271 270 269 271 271 270 269 265 263 261 259 260 261 261 263 263
292 291 291 291 292 292 290 289 288 288 286 284 285 286 286 286 284 283 281 281 280 279 277 275 273 272 270 270 271 270 271 271 268 266 265 263 262 260 260 260 261 262 264
295 294 294 295 294 294 294 292 290 289 289 288 287 286 286 286 286 284 282 280 279 278 277 276 274 272 271 270 269 270 271 270 268 265 264 263 262 261 262 261 261 262 263
295 295 295 295 295 295 295 294 293 292 291 291 289 287 287 287 286 285 283 281 279 278 277 276 275 274 272 270 269 269 268 269 269 266 263 262 262 262 264 265 263 263 264
297 296 296 296 296 295 295 295 295 294 294 293 292 291 291 290 288 286 284 283 282 280 278 276 275 275 274 271 269 268 268 268 268 268 266 264 263 263 266 267 266 265 267
299 299 299 299 298 296 296 295 294 294 295 296 295 294 293 291 290 288 286 286 284 282 279 278 277 276 275 274 272 270 268 267 267 267 266 267 265 265 266 266 267 268 268
302 302 301 301 300 298 298 297 296 297 297 298 297 296 294 292 290 288 287 286 284 282 279 277 277 277 275 274 274 272 268 267 267 266 265 265 265 265 266 267 268 268 267
304 303 302 302 301 301 300 299 299 299 299 299 298 297 295 294 292 290 288 286 284 282 280 278 277 277 276 275 273 270 268 267 266 266 265 265 265 264 265 266 267 268 268
305 304 304 303 302 302 301 301 300 299 298 298 298 298 299 298 295 293 289 286 284 282 281 281 280 278 277 275 272 270 269 267 265 267 267 267 268 267 267 267 268 268 268
306 305 305 305 304 303 303 302 302 301 300 301 302 303 302 302 301 298 292 287 286 284 284 283 281 279 277 274 271 270 268 268 265 266 268 267 266 266 266 266 266 267 269
308 307 307 307 306 305 305 306 305 304 303 304 304 305 305 305 304 300 295 292 291 289 286 286 285 282 279 275 268 265 267 265 266 271 272 269 266 267 268 269 269 270 271
311 310 309 308 307 307 307 307 307 308 308 309 309 309 307 309 308 306 304 299 295 292 288 289 288 285 281 280 274 269 268 269 272 274 277 277 275 274 273 274 275 274 274
311 310 310 308 306 307 308 309 310 312 314 314 314 313 308 307 306 307 309 304 299 296 295 296 298 293 289 284 281 273 271 274 276 278 282 281 280 279 277 278 281 280 280
310 310 308 307 309 310 311 312 313 315 318 321 321 320 315 311 308 308 311 309 308 310 308 304 307 309 309 298 293 283 278 279 278 279 284 285 283 283 283 285 285 285 286
313 311 310 313 315 315 316 318 320 323 325 326 328 331 329 325 318 317 318 317 320 327 330 330 345 355 347 346 349 3 1 346 326 319 313 308 309 307 307 306 304 301 299
322 320 320 322 325 327 324 326 329 333 337 340 344 349 351 346 343 346 352 5 19 30 40 41 48 45 43 45 51 47 40 37 37 35 30 21 9 357 345 337 333 331 327
332 332 332 334 334 337 340 344 348 351 353 0 9 13 15 20 24 35 53 62 64 65 60 66 67 65 60 55 53 53 56 57 53 47 41 37 33 27 21 13 6 1 358
344 347 349 350 349 354 1 360 1 6 13 24 27 27 33 41 52 63 72 72 71 73 72 72 69 67 67 64 65 66 63 59 57 53 47 42 39 37 34 31 27 23 18
356 1 6 9 9 11 12 10 20 28 34 40 43 47 53 64 69 72 74 73 75 79 79 77 76 73 69 68 67 66 64 63 60 57 52 49 49 48 45 43 41 39 37
Height
5838 5838 5837 5838 5839 5838 5838 5838 5837 5836 5835 5835 5834 5833 5833 5833 5833 5832 5832 5832 5832 5831 5831 5831 5832 5832 5833 5833 5833 5834 5835 5836 5837 5838 5840 5841 5842 5843 5844 5845 5847 5848 5849
5834 5835 5834 5835 5834 5834 5834 5833 5832 5831 5830 5829 5828 5827 5827 5826 5826 5826 5826 5826 5825 5825 5825 5825 5825 5825 5826 5826 5826 5827 5827 5829 5830 5832 5833 5834 5836 5836 5837 5839 5841 5842 5842
5831 5831 5831 5831 5830 5829 5829 5828 5827 5826 5825 5823 5822 5822 5821 5820 5820 5820 5819 5819 5818 5818 5818 5818 5818 5818 5818 5819 5819 5820 5821 5821 5823 5824 5825 5827 5828 5830 5831 5832 5833 5835 5836
5826 5827 5827 5826 5825 5824 5823 5822 5821 5820 5819 5818 5817 5815 5815 5814 5814 5813 5812 5812 5811 5811 5811 5811 5811 5811 5811 5812 5812 5813 5814 5814 5815 5817 5817 5819 5820 5822 5824 5825 5826 5827 5829
5822 5822 5822 5821 5820 5819 5818 5817 5815 5814 5813 5812 5811 5809 5808 5807 5807 5806 5805 5804 5804 5804 5804 5804 5803 5803 5804 5804 5805 5806 5806 5807 5808 5809 5810 5811 5813 5814 5816 5818 5819 5820 5821
5819 5818 5817 5816 5815 5814 5812 5811 5810 5808 5807 5805 5804 5803 5802 5800 5800 5799 5798 5797 5796 5796 5796 5796 5796 5796 5796 5797 5798 5798 5799 5800 5801 5801 5802 5804 5805 5807 5808 5810 5811 5812 5814
5814 5813 5812 5811 5810 5808 5807 5805 5803 5802 5800 5799 5797 5796 5795 5793 5792 5791 5791 5790 5789 5789 5789 5789 5788 5788 5789 5789 5790 5791 5792 5793 5793 5794 5795 5796 5798 5799 5801 5802 5804 5805 5806
5810 5809 5807 5806 5804 5802 5800 5799 5797 5795 5793 5792 5790 5789 5787 5786 5785 5784 5783 5782 5782 5781 5781 5781 5781 5781 5781 5782 5783 5783 5784 5785 5786 5787 5787 5789 5790 5792 5793 5795 5796 5797 5799
5805 5804 5802 5800 5798 5796 5794 5792 5790 5788 5786 5784 5783 5781 5779 5778 5776 5776 5775 5774 5774 5773 5773 5773 5773 5773 5773 5774 5775 5775 5776 5777 5778 5779 5780 5781 5782 5784 5785 5787 5788 5790 5791
5801 5799 5797 5795 5793 5790 5788 5786 5783 5781 5779 5777 5775 5773 5771 5770 5768 5767 5767 5766 5765 5765 5765 5764 5765 5765 5765 5766 5767 5767 5768 5769 5770 5771 5772 5773 5775 5776 5777 5779 5780 5782 5783
5796 5794 5791 5789 5787 5784 5782 5779 5777 5774 5772 5770 5768 5766 5764 5762 5760 5759 5758 5758 5757 5757 5757 5756 5757 5757 5757 5758 5759 5760 5761 5761 5762 5763 5764 5766 5767 5768 5770 5771 5772 5774 5775
5790 5788 5785 5783 5780 5777 5775 5773 5770 5768 5766 5763 5761 5759 5757 5755 5753 5752 5751 5750 5750 5749 5749 5749 5749 5749 5749 5750 5750 5751 5752 5753 5754 5755 5756 5757 5759 5761 5762 5764 5765 5766 5767
5785 5782 5779 5776 5774 5771 5769 5766 5764 5762 5759 5757 5755 5752 5750 5748 5747 5745 5744 5743 5743 5742 5742 5742 5742 5742 5742 5742 5743 5743 5744 5745 5746 5748 5749 5750 5752 5753 5755 5756 5757 5758 5759
5779 5776 5773 5770 5768 5765 5763 5760 5758 5756 5753 5751 5748 5746 5744 5742 5740 5739 5738 5737 5736 5736 5735 5735 5735 5735 5735 5736 5736 5737 5737 5738 5739 5740 5742 5743 5745 5746 5748 5749 5750 5751 5752
5774 5771 5768 5765 5762 5759 5757 5754 5752 5750 5747 5745 5742 5740 5738 5736 5734 5733 5731 5731 5730 5730 5729 5729 5729 5729 5729 5729 5730 5730 5731 5732 5733 5734 5735 5736 5738 5739 5741 5742 5743 5744 5744
5769 5766 5762 5760 5757 5754 5752 5749 5747 5744 5742 5740 5737 5735 5732 5730 5728 5727 5725 5725 5724 5724 5724 5723 5723 5723 5723 5723 5724 5724 5725 5726 5727 5728 5729 5730 5731 5733 5734 5735 5736 5737 5737
5764 5761 5758 5755 5752 5749 5747 5744 5742 5740 5737 5735 5733 5730 5728 5726 5724 5722 5720 5720 5720 5719 5719 5718 5718 5718 5718 5718 5719 5719 5720 5721 5722 5723 5724 5725 5726 5727 5728 5728 5729 5730 5731
5759 5756 5753 5750 5747 5744 5742 5740 5738 5735 5733 5731 5728 5726 5724 5722 5720 5718 5717 5716 5715 5715 5715 5714 5714 5714 5714 5714 5714 5715 5716 5716 5717 5718 5719 5720 5721 5721 5722 5723 5723 5724 5725
5754 5751 5748 5746 5743 5740 5738 5736 5734 5731 5729 5727 5725 5722 5720 5718 5717 5716 5714 5713 5713 5712 5712 5711 5711 5711 5711 5711 5711 5712 5713 5713 5714 5715 5715 5716 5716 5717 5717 5718 5718 5719 5719
5750 5747 5744 5741 5739 5737 5735 5733 5730 5728 5726 5724 5721 5719 5717 5716 5715 5714 5713 5712 5711 5710 5710 5709 5709 5709 5709 5709 5709 5709 5710 5711 5711 5712 5712 5712 5713 5713 5713 5714 5714 5714 5714
5746 5743 5740 5738 5736 5734 5732 5730 5728 5726 5724 5722 5719 5717 5715 5714 5713 5712 5711 5711 5710 5709 5709 5708 5708 5708 5708 5708 5708 5708 5708 5709 5709 5710 5710 5710 5710 5711 5711 5711 5711 5711 5711
5742 5739 5737 5735 5732 5731 5729 5727 5726 5724 5722 5720 5718 5716 5714 5713 5712 5711 5711 5710 5710 5709 5709 5708 5708 5708 5708 5708 5708 5708 5708 5708 5708 5709 5709 5709 5709 5709 5709 5709 5709 5709 5709
5739 5737 5735 5733 5731 5729 5728 5726 5724 5723 5721 5719 5717 5715 5714 5713 5712 5711 5711 5711 5710 5710 5710 5709 5710 5709 5709 5709 5709 5709 5709 5709 5709 5709 5709 5709 5708 5708 5708 5708 5708 5708 5707
5738 5736 5733 5731 5730 5728 5727 5725 5724 5722 5720 5719 5717 5716 5715 5714 5713 5712 5712 5712 5712 5712 5711 5711 5711 5711 5711 5711 5711 5711 5711 5710 5710 5710 5710 5709 5709 5708 5708 5708 5707 5707 5707
5737 5735 5733 5731 5730 5728 5727 5726 5724 5723 5721 5720 5718 5717 5716 5715 5715 5714 5714 5713 5713 5713 5714 5714 5714 5714 5714 5714 5713 5713 5713 5712 5712 5712 5711 5711 5710 5709 5709 5708 5708 5707 5706
5737 5735 5733 5732 5730 5729 5727 5726 5725 5724 5723 5722 5720 5719 5718 5718 5717 5716 5716 5716 5716 5716 5716 5716 5716 5716 5716 5716 5716 5716 5715 5715 5714 5714 5713 5712 5711 5711 5710 5709 5709 5708 5707